Sioux Falls, SD

8:16 AM CDT on October 20, 2017 (GMT -0500)
Foss

Weather History for KFSD - July, 2013

Change the Weather History Date:

Monday, July 22, 2013

  Actual Average Record
Temperature  
Mean Temperature 73 °F 73 °F  
Max Temperature 84 °F 84 °F 107 °F (1936)
Min Temperature 62 °F 62 °F 47 °F (1947)
Degree Days  
Heating Degree Days 0 0  
Month to date heating degree days 0 0  
Since 1 June heating degree days 69 51  
Since 1 July heating degree days 0 0  
Cooling Degree Days 8 8  
Month to date cooling degree days 224 184  
Year to date cooling degree days 402 355  
Since 1 June cooling degree days 360 319  
Growing Degree Days 25 (Base 50)    
Moisture  
Dew Point 65 °F    
Average Humidity 70    
Maximum Humidity 93    
Minimum Humidity 47    
Precipitation  
Precipitation 0.00 in 0.10 in 1.24 in (1922)
Month to date precipitation 0.59 2.21  
Year to date precipitation 17.18 15.46  
Snow  
Snow 0.00 in 0.00 in 0.00 in ()
Month to date snowfall 0.0 0.0  
Since 1 June snowfall 0.0 0.0  
Since 1 July snowfall 0.0 0.0  
Snow Depth 0.00 in    
Sea Level Pressure  
Sea Level Pressure 29.77 in    
Wind  
Wind Speed 9 mph (WNW)    
Max Wind Speed 20 mph    
Max Gust Speed 26 mph    
Visibility 10 miles    
Events      
T = Trace of Precipitation, MM = Missing Value Source: NWS Daily Summary

Daily Weather History Graph

Daily Weather History Graph

Search for Another Location

Airport or City:

Trip Planner

Search our weather history database for the weather conditions in past years. The results will help you decide how hot, cold, wet, or windy it might be!

Date:

Astronomy

Jul. 22, 2013 Rise Set
Actual Time 6:06 AM CDT 9:00 PM CDT
Civil Twilight 5:32 AM CDT 9:33 PM CDT
Nautical Twilight 4:49 AM CDT 10:16 PM CDT
Astronomical Twilight 3:59 AM CDT 11:06 PM CDT
Moon 8:43 PM CDT (7/22) 6:06 AM CDT (7/22)
Length of Visible Light 16h 01m
Length of Day
14h 53m
Full, 100% of the Moon is Illuminated
Jul 22
Full
Jul 22
Full
Jul 29
Last Quarter
Aug 6
New
Aug 14
First Quarter

Hourly Weather History & Observations

Time (CDT) Temp. Heat Index Dew Point Humidity Pressure Visibility Wind Dir Wind Speed Gust Speed Precip Events Conditions
12:56 AM 75.0 °F - 66.9 °F 76% 29.72 in 10.0 mi South 10.4 mph - N/A   Clear
1:56 AM 73.9 °F - 66.9 °F 79% 29.74 in 10.0 mi SSW 6.9 mph - N/A   Clear
2:56 AM 73.0 °F - 66.9 °F 81% 29.73 in 10.0 mi SW 4.6 mph - N/A   Clear
3:56 AM 72.0 °F - 66.0 °F 81% 29.71 in 10.0 mi SSW 8.1 mph - N/A   Clear
4:56 AM 70.0 °F - 66.0 °F 87% 29.70 in 10.0 mi South 8.1 mph - N/A   Scattered Clouds
5:56 AM 69.1 °F - 66.0 °F 90% 29.70 in 10.0 mi South 4.6 mph - N/A   Scattered Clouds
6:56 AM 70.0 °F - 66.9 °F 90% 29.70 in 10.0 mi South 8.1 mph - N/A   Scattered Clouds
7:15 AM 69.8 °F - 66.2 °F 88% 29.77 in 10.0 mi Variable 4.6 mph - N/A   Mostly Cloudy
7:56 AM 71.1 °F - 66.9 °F 87% 29.75 in 10.0 mi East 5.8 mph - N/A   Mostly Cloudy
8:56 AM 75.9 °F - 68.0 °F 76% 29.75 in 10.0 mi SSE 8.1 mph - N/A   Partly Cloudy
9:56 AM 79.0 °F - 68.0 °F 69% 29.75 in 10.0 mi Variable 5.8 mph - N/A   Partly Cloudy
10:56 AM 81.0 °F 83.8 °F 68.0 °F 65% 29.76 in 10.0 mi West 8.1 mph - N/A   Scattered Clouds
11:56 AM 82.0 °F 85.9 °F 70.0 °F 67% 29.76 in 10.0 mi NNW 10.4 mph - N/A   Scattered Clouds
12:56 PM 82.9 °F 87.0 °F 70.0 °F 65% 29.78 in 10.0 mi NW 11.5 mph - N/A   Scattered Clouds
1:56 PM 84.0 °F 87.0 °F 68.0 °F 58% 29.76 in 10.0 mi WNW 17.3 mph 23.0 mph N/A   Partly Cloudy
2:56 PM 84.0 °F 85.8 °F 64.9 °F 53% 29.78 in 10.0 mi NW 15.0 mph 20.7 mph N/A   Partly Cloudy
3:56 PM 82.9 °F 83.7 °F 62.1 °F 49% 29.79 in 10.0 mi NW 11.5 mph 21.9 mph N/A   Partly Cloudy
4:56 PM 82.0 °F 82.4 °F 60.1 °F 47% 29.80 in 10.0 mi NW 12.7 mph 19.6 mph N/A   Partly Cloudy
5:56 PM 81.0 °F 81.9 °F 62.1 °F 52% 29.80 in 10.0 mi NNW 13.8 mph 20.7 mph N/A   Partly Cloudy
6:56 PM 79.0 °F - 61.0 °F 54% 29.81 in 10.0 mi NNW 11.5 mph - N/A   Partly Cloudy
7:56 PM 77.0 °F - 61.0 °F 58% 29.82 in 10.0 mi NNW 11.5 mph - N/A   Partly Cloudy
8:56 PM 72.0 °F - 61.0 °F 68% 29.83 in 10.0 mi North 6.9 mph - N/A   Partly Cloudy
9:56 PM 70.0 °F - 60.1 °F 71% 29.86 in 10.0 mi North 8.1 mph - N/A   Partly Cloudy
10:56 PM 66.9 °F - 60.1 °F 79% 29.89 in 10.0 mi NNE 8.1 mph - N/A   Scattered Clouds
11:56 PM 63.0 °F - 60.1 °F 90% 29.91 in 10.0 mi NE 6.9 mph - N/A   Partly Cloudy